Cheboygan, MI

6:56 PM EDT on September 16, 2019 (GMT -0400)
Cheboygan

Weather History for KSLH - August, 2019

Change the Weather History Date:

Saturday, August 24, 2019

  Actual Average (WUND) Record (WUND)
Temperature  
Mean Temperature 55 °F -  
Max Temperature 70 °F - - (-1)
Min Temperature 40 °F - - (-1)
Degree Days  
Heating Degree Days 10    
Growing Degree Days 5 (Base 50)    
Moisture  
Dew Point 47 °F    
Average Humidity 71    
Maximum Humidity 99    
Minimum Humidity 43    
Precipitation  
Precipitation 0.00 in - - ()
Sea Level Pressure  
Sea Level Pressure 30.32 in    
Wind  
Wind Speed 3 mph (East)    
Max Wind Speed 14 mph    
Max Gust Speed 16 mph    
Visibility 10 miles    
Events      
Averages and records for this station are not official NWS values.
T = Trace of Precipitation, MM = Missing Value Source: NWS Daily Summary

Daily Weather History Graph

Daily Weather History Graph

Search for Another Location

Airport or City:

Astronomy

Aug. 24, 2019 Rise Set
Actual Time 6:49 AM EDT 8:30 PM EDT
Civil Twilight 6:17 AM EDT 9:02 PM EDT
Nautical Twilight 5:39 AM EDT 9:40 PM EDT
Astronomical Twilight 4:57 AM EDT 10:21 PM EDT
Moon 12:35 AM EDT (8/24) 3:54 PM EDT (8/24)
Length of Visible Light 14h 44m
Length of Day
13h 41m
Last Quarter, 39% of the Moon is Illuminated
Aug 24
Last Quarter
Aug 30
New
Sep 5
First Quarter
Sep 14
Full
Sep 21
Last Quarter

Hourly Weather History & Observations

Time (EDT) Temp. Windchill Dew Point Humidity Pressure Visibility Wind Dir Wind Speed Gust Speed Precip Events Conditions
12:17 AM 52.3 °F - 48.2 °F 86% 30.29 in 10.0 mi Calm Calm - N/A   Clear
12:35 AM 49.6 °F - 47.5 °F 92% 30.30 in 10.0 mi Calm Calm - N/A   Clear
12:55 AM 48.9 °F - 46.8 °F 92% 30.30 in 10.0 mi West 3.5 mph - N/A   Clear
1:15 AM 48.0 °F - 46.0 °F 93% 30.30 in 10.0 mi Calm Calm - N/A   Clear
1:38 AM 46.4 °F - 45.1 °F 95% 30.30 in 10.0 mi Calm Calm - N/A   Clear
1:56 AM 45.9 °F - 44.4 °F 95% 30.30 in 10.0 mi Calm Calm - N/A   Clear
2:15 AM 45.1 °F - 43.7 °F 95% 30.30 in 10.0 mi Calm Calm - N/A   Clear
2:16 AM 45.1 °F - 43.7 °F 95% 30.30 in 10.0 mi Calm Calm - N/A   Clear
2:35 AM 45.1 °F - 44.4 °F 97% 30.31 in 10.0 mi Calm Calm - N/A   Clear
2:59 AM 44.2 °F - 43.3 °F 97% 30.31 in 10.0 mi Calm Calm - N/A   Clear
3:35 AM 44.6 °F - 43.9 °F 97% 30.31 in 10.0 mi Calm Calm - N/A   Clear
3:55 AM 43.0 °F - 42.3 °F 97% 30.31 in 10.0 mi Calm Calm - N/A   Clear
4:15 AM 42.3 °F - 40.6 °F 94% 30.31 in 10.0 mi Calm Calm - N/A   Clear
4:56 AM 42.8 °F - 41.9 °F 97% 30.32 in 10.0 mi Calm Calm - N/A   Clear
5:15 AM 42.1 °F - 41.2 °F 97% 30.32 in - Calm Calm - N/A   Unknown
5:35 AM 41.4 °F - 40.5 °F 97% 30.33 in 10.0 mi Calm Calm - N/A   Clear
5:59 AM 41.7 °F - 41.0 °F 97% 30.34 in 10.0 mi Calm Calm - N/A   Clear
6:17 AM 41.7 °F - 41.0 °F 97% 30.35 in 10.0 mi Calm Calm - N/A   Clear
6:36 AM 41.0 °F - 39.9 °F 96% 30.35 in 10.0 mi Calm Calm - N/A   Clear
6:55 AM 40.3 °F - 39.0 °F 95% 30.35 in 10.0 mi Calm Calm - N/A   Clear
7:15 AM 43.2 °F 40.5 °F 42.8 °F 99% 30.35 in 10.0 mi SW 4.6 mph - N/A   Clear
7:38 AM 43.0 °F - 42.4 °F 98% 30.37 in 10.0 mi Calm Calm - N/A   Clear
7:55 AM 45.9 °F - 44.4 °F 95% 30.37 in 10.0 mi Calm Calm - N/A   Clear
8:15 AM 49.5 °F - 48.2 °F 95% 30.36 in 10.0 mi Calm Calm - N/A   Clear
8:35 AM 53.8 °F - 51.3 °F 91% 30.37 in 10.0 mi Calm Calm - N/A   Clear
8:58 AM 58.3 °F - 54.5 °F 87% 30.37 in 10.0 mi Calm Calm - N/A   Clear
9:16 AM 60.4 °F - 55.8 °F 85% 30.37 in 10.0 mi Calm Calm - N/A   Clear
9:35 AM 62.1 °F - 54.5 °F 76% 30.37 in 10.0 mi Calm Calm - N/A   Clear
9:55 AM 64.0 °F - 54.3 °F 71% 30.36 in 10.0 mi ESE 4.6 mph - N/A   Clear
10:37 AM 66.2 °F - 51.8 °F 60% 30.36 in 10.0 mi SE 4.6 mph - N/A   Clear
10:55 AM 66.4 °F - 50.7 °F 57% 30.35 in 10.0 mi South 3.5 mph - N/A   Clear
11:15 AM 67.6 °F - 46.6 °F 47% 30.35 in 10.0 mi ENE 6.9 mph - N/A   Scattered Clouds
11:40 AM 68.9 °F - 45.7 °F 43% 30.35 in 10.0 mi SSE 6.9 mph - N/A   Clear
11:58 AM 68.5 °F - 52.5 °F 57% 30.35 in 10.0 mi ENE 8.1 mph - N/A   Clear
12:16 PM 68.9 °F - 53.1 °F 57% 30.35 in 10.0 mi ENE 8.1 mph - N/A   Clear
12:35 PM 68.4 °F - 52.2 °F 56% 30.35 in 10.0 mi NE 10.4 mph - N/A   Clear
12:55 PM 68.7 °F - 49.5 °F 50% 30.35 in 10.0 mi ENE 10.4 mph - N/A   Clear
1:19 PM 68.9 °F - 51.6 °F 54% 30.34 in 10.0 mi NE 11.5 mph - N/A   Clear
1:37 PM 68.4 °F - 50.5 °F 53% 30.34 in 10.0 mi NE 11.5 mph - N/A   Clear
1:55 PM 69.6 °F - 49.8 °F 49% 30.34 in 10.0 mi NE 8.1 mph 16.1 mph N/A   Clear
2:15 PM 69.3 °F - 48.6 °F 48% 30.33 in 10.0 mi ENE 11.5 mph - N/A   Clear
2:35 PM 69.4 °F - 48.4 °F 47% 30.32 in 10.0 mi NE 11.5 mph 16.1 mph N/A   Clear
2:58 PM 69.8 °F - 48.9 °F 47% 30.32 in 10.0 mi ENE 11.5 mph 16.1 mph N/A   Clear
3:16 PM 69.3 °F - 48.4 °F 47% 30.31 in 10.0 mi NE 12.7 mph - N/A   Clear
3:35 PM 70.0 °F - 49.1 °F 47% 30.31 in 10.0 mi NE 12.7 mph - N/A   Clear
3:55 PM 68.9 °F - 48.6 °F 48% 30.30 in 10.0 mi ENE 12.7 mph - N/A   Clear
4:19 PM 69.6 °F - 49.1 °F 48% 30.30 in 10.0 mi East 13.8 mph - N/A   Clear
4:37 PM 68.7 °F - 48.4 °F 48% 30.30 in 10.0 mi ENE 12.7 mph - N/A   Clear
4:56 PM 68.9 °F - 48.2 °F 48% 30.30 in 10.0 mi East 11.5 mph - N/A   Clear
5:15 PM 68.9 °F - 46.8 °F 45% 30.29 in 10.0 mi East 11.5 mph - N/A   Clear
5:35 PM 68.9 °F - 46.4 °F 44% 30.29 in 10.0 mi ENE 11.5 mph - N/A   Clear
5:58 PM 68.7 °F - 48.6 °F 49% 30.29 in 10.0 mi ENE 10.4 mph - N/A   Clear
6:16 PM 68.7 °F - 47.3 °F 46% 30.29 in 10.0 mi ENE 12.7 mph - N/A   Clear
6:35 PM 68.5 °F - 48.6 °F 49% 30.28 in 10.0 mi East 10.4 mph - N/A   Clear
6:55 PM 68.4 °F - 47.5 °F 47% 30.28 in 10.0 mi East 9.2 mph - N/A   Clear
7:19 PM 66.4 °F - 47.7 °F 51% 30.28 in 10.0 mi ESE 8.1 mph - N/A   Clear
7:37 PM 65.5 °F - 46.2 °F 50% 30.28 in 10.0 mi East 8.1 mph - N/A   Clear
7:55 PM 64.6 °F - 47.3 °F 53% 30.28 in 10.0 mi East 6.9 mph - N/A   Clear
8:15 PM 63.5 °F - 48.6 °F 58% 30.28 in 10.0 mi East 4.6 mph - N/A   Clear
8:35 PM 61.7 °F - 48.7 °F 62% 30.28 in 10.0 mi East 5.8 mph - N/A   Clear
8:40 PM 61.2 °F - 48.6 °F 63% 30.29 in 10.0 mi East 4.6 mph - N/A   Clear
8:58 PM 59.9 °F - 48.4 °F 66% 30.29 in 10.0 mi Calm Calm - N/A   Clear
9:16 PM 59.0 °F - 49.1 °F 70% 30.30 in 10.0 mi Calm Calm - N/A   Clear
9:35 PM 57.9 °F - 48.9 °F 72% 30.30 in 10.0 mi Calm Calm - N/A   Clear
9:55 PM 56.5 °F - 48.7 °F 75% 30.30 in 10.0 mi Calm Calm - N/A   Clear
10:19 PM 58.8 °F - 48.2 °F 68% 30.30 in 10.0 mi SSE 3.5 mph - N/A   Clear
10:37 PM 59.0 °F - 47.8 °F 66% 30.30 in 10.0 mi SSE 3.5 mph - N/A   Clear
10:55 PM 58.6 °F - 48.2 °F 68% 30.30 in 10.0 mi South 3.5 mph - N/A   Clear
11:15 PM 58.5 °F - 48.6 °F 70% 30.29 in 10.0 mi South 4.6 mph - N/A   Clear
11:35 PM 57.9 °F - 48.6 °F 71% 30.29 in 10.0 mi South 3.5 mph - N/A   Clear
11:39 PM 57.6 °F - 48.4 °F 71% 30.29 in 10.0 mi South 3.5 mph - N/A   Clear
11:58 PM 57.2 °F - 48.4 °F 72% 30.29 in 10.0 mi South 3.5 mph - N/A   Clear